GFSNIL_sfc_rhum_072.txt.gz
RH
66 51 50 52 40 42 40 42 53 59 56 57 57 56 59 50 46 51 50 56 58 38
66 64 51 55 53 43 49 39 53 52 54 54 59 59 66 49 57 54 57 54 56 48
59 63 60 57 60 55 46 53 50 56 56 55 58 64 66 52 58 61 49 42 56 59
53 54 59 57 59 59 55 55 58 60 63 59 57 60 67 60 53 62 60 55 56 61
56 54 51 58 56 58 60 55 59 66 62 63 56 60 64 60 51 57 58 58 58 57
56 56 54 54 56 57 59 59 52 56 66 64 62 61 62 60 57 57 57 56 58 58
60 56 51 54 57 56 59 60 58 57 58 59 53 56 60 62 58 57 54 56 56 55
57 57 57 57 59 58 59 59 59 57 56 56 52 42 55 57 61 60 59 57 58 56
56 58 61 64 65 62 61 62 61 59 56 56 42 61 77 66 54 57 60 60 60 59
69 66 64 62 65 68 68 63 67 62 59 60 58 72 81 82 49 49 55 59 57 52
67 64 69 74 71 68 65 66 66 65 67 65 58 77 82 85 58 56 55 54 56 60
80 75 73 68 75 77 73 67 64 62 66 70 68 84 84 84 56 52 61 56 57 58
76 82 80 76 84 86 87 77 62 59 61 68 66 86 88 83 48 52 44 57 64 78
67 75 82 83 83 91 89 86 80 74 65 63 65 68 93 92 60 46 43 41 36 35

GFSNIL_sfc_rhum_075.txt.gz
RH
64 49 47 52 50 45 71 72 62 57 56 56 61 55 58 51 48 55 48 51 60 54
65 63 49 56 52 44 61 85 50 52 55 53 52 56 61 50 57 67 55 53 55 52
59 62 59 52 57 52 64 48 78 53 54 53 53 55 62 60 59 58 48 41 61 61
53 54 58 55 55 57 52 53 52 61 55 55 54 56 64 69 54 58 62 60 52 62
51 52 51 57 55 58 61 54 55 56 58 57 55 57 61 58 47 54 57 56 62 54
47 50 52 53 55 58 60 60 49 55 61 58 56 59 61 60 58 53 53 53 56 57
51 51 54 54 57 54 61 62 60 58 58 58 54 54 57 63 66 58 53 54 53 54
50 57 62 57 59 57 59 60 60 61 58 56 49 41 56 56 58 67 59 55 54 54
62 75 66 62 62 63 62 64 64 62 60 59 41 57 73 62 53 60 62 66 61 59
78 70 75 75 76 71 68 64 69 65 62 64 61 69 79 77 47 53 59 65 62 53
77 77 77 80 80 80 79 77 70 66 68 68 61 74 78 81 60 57 59 59 61 65
69 78 79 83 84 79 74 69 70 67 69 71 70 84 81 81 54 53 62 59 59 59
67 73 81 77 78 88 86 67 57 63 64 71 68 86 88 82 50 54 48 60 65 75
59 64 70 70 66 78 87 89 77 69 73 75 72 69 92 90 65 53 46 44 42 42

GFSNIL_sfc_rhum_078.txt.gz
RH
77 83 70 91 76 83 83 88 76 76 74 74 73 71 77 77 76 75 72 72 78 75
76 77 69 72 71 74 89 81 78 75 73 73 76 76 79 82 78 76 76 75 75 76
73 75 74 77 74 68 87 90 89 95 77 73 75 75 79 81 76 83 73 67 76 78
68 68 72 71 70 70 66 88 90 81 83 80 73 73 79 80 77 74 78 78 77 78
67 67 68 71 69 72 76 72 86 85 90 79 75 80 80 77 70 77 77 76 76 74
62 69 66 74 70 72 74 75 66 70 76 76 74 77 78 79 76 73 72 74 78 76
60 60 60 74 76 74 76 75 73 73 76 75 74 71 74 78 79 79 72 73 72 74
96 70 66 73 76 75 75 71 74 74 73 74 67 54 70 73 77 84 79 76 73 70
93 92 83 79 78 77 74 77 77 74 73 71 54 60 74 71 69 76 79 78 78 74
86 90 93 84 79 79 82 81 80 76 73 74 72 74 78 80 62 68 77 78 78 68
74 77 88 88 92 92 88 86 88 81 78 77 71 80 79 83 74 70 70 72 78 75
72 71 75 89 90 92 93 92 89 85 81 80 78 87 86 83 70 67 72 69 70 71
67 72 76 82 84 84 84 89 92 87 83 81 79 89 90 87 71 68 63 69 72 79
66 71 72 75 76 89 93 88 88 88 90 84 84 82 94 92 78 68 66 63 60 57

GFSNIL_sfc_rhum_081.txt.gz
RH
88 94 93 88 94 95 95 89 83 87 86 84 81 81 84 80 86 83 81 73 76 83
87 92 91 88 91 91 89 83 92 89 85 86 85 81 88 87 85 86 83 86 82 79
89 89 90 93 87 88 93 92 85 79 81 88 84 84 87 88 82 82 71 74 79 82
92 86 89 89 85 92 94 94 89 82 78 88 87 85 86 87 84 84 86 84 86 83
88 84 89 88 84 83 91 95 93 92 87 85 85 88 89 88 75 85 84 81 86 78
93 90 91 89 83 84 92 93 85 80 85 90 87 89 88 86 88 85 82 82 86 82
97 97 96 90 88 89 88 87 88 86 89 88 84 78 86 85 84 87 83 82 85 82
98 96 95 94 95 90 89 85 85 83 87 85 80 72 84 84 82 88 86 86 83 81
96 96 97 96 97 89 90 89 91 89 85 87 71 74 80 81 85 86 85 84 86 80
94 93 95 96 97 98 96 90 90 90 88 92 84 84 84 83 74 85 82 84 81 80
90 87 90 95 97 96 98 98 95 92 91 92 89 88 85 86 76 76 85 84 85 81
80 73 78 89 92 94 97 96 97 97 95 94 92 92 92 93 91 80 80 80 85 87
74 73 74 81 85 83 96 97 95 97 96 96 95 96 96 97 96 98 83 79 82 90
71 77 70 71 76 88 92 93 97 94 96 93 96 95 98 97 96 84 98 79 70 67

GFSNIL_sfc_rhum_084.txt.gz
RH
92 94 91 88 95 96 96 92 86 90 90 87 85 84 86 88 87 86 89 79 84 85
92 90 91 92 92 92 94 84 86 90 90 90 86 83 89 90 86 89 87 88 88 85
90 92 90 93 87 94 90 91 93 91 90 90 89 88 92 91 89 89 86 83 83 82
95 92 93 95 93 95 93 94 91 90 85 87 89 90 93 92 89 86 89 86 90 85
97 95 94 94 92 95 92 93 91 86 83 81 86 91 94 89 83 88 85 85 89 87
97 98 97 95 90 95 93 93 90 87 86 86 86 92 93 91 89 88 88 86 88 88
98 98 97 97 98 96 96 92 93 85 83 83 83 85 89 90 88 91 88 85 86 87
99 98 97 95 94 94 97 95 94 89 87 84 85 76 85 89 89 89 89 90 90 87
97 96 97 98 96 96 97 97 95 96 90 91 81 82 87 87 90 90 87 87 86 85
96 95 94 95 96 96 96 97 98 96 96 94 90 89 88 88 88 93 91 90 86 82
93 94 94 92 92 94 97 97 98 98 98 97 96 96 93 94 92 85 91 90 89 84
83 79 78 91 93 94 95 95 95 95 96 97 97 100 100 99 97 96 86 79 88 90
70 73 75 81 90 92 94 95 95 93 95 95 95 99 100 100 99 98 98 96 89 91
73 71 66 69 72 83 89 94 95 94 95 96 96 95 100 100 98 92 98 99 90 77

GFSNIL_sfc_rhum_087.txt.gz
RH
92 94 92 91 95 96 96 93 91 93 92 89 88 85 88 93 90 88 91 83 89 88
93 92 89 89 93 96 94 87 91 91 93 91 89 86 92 94 88 90 91 88 89 88
95 93 92 94 93 92 91 93 91 93 93 93 93 89 92 94 91 91 91 86 87 85
95 94 95 94 93 91 94 93 92 94 93 93 93 93 94 94 92 92 91 90 91 90
96 95 96 96 94 96 96 95 96 92 91 90 90 92 94 94 88 92 91 89 91 88
98 98 97 96 95 94 96 96 96 91 91 88 84 91 93 95 93 92 91 88 91 88
99 99 99 97 96 96 97 96 96 95 93 87 84 80 90 92 95 93 91 91 92 90
99 98 98 98 97 97 96 97 98 94 91 87 81 74 85 90 94 95 93 91 91 90
98 96 96 98 98 96 97 98 98 99 96 94 87 85 89 88 92 94 92 91 88 87
97 97 96 94 92 96 98 96 97 97 97 98 97 97 96 91 90 95 96 96 94 89
89 93 94 95 95 94 95 94 94 95 95 98 98 100 100 98 97 94 92 93 94 94
81 75 76 88 91 93 94 94 95 95 95 95 95 100 100 100 99 98 96 94 91 93
71 77 70 75 88 88 90 91 94 94 94 94 95 100 98 100 99 99 99 97 97 96
73 70 67 71 72 77 82 89 92 92 94 90 90 92 100 100 99 100 99 99 98 96

GFSNIL_sfc_rhum_093.txt.gz
RH
76 62 61 70 65 63 76 80 72 71 70 71 70 69 71 60 58 67 60 66 68 54
73 74 67 75 73 65 72 61 69 69 67 71 70 70 73 58 67 69 67 64 66 54
75 77 72 74 73 73 69 74 75 72 70 73 72 72 77 69 69 72 62 56 68 67
72 70 78 72 71 75 75 76 76 78 73 74 77 73 83 82 72 74 71 69 69 68
79 71 81 79 75 77 75 75 76 75 74 75 68 77 76 75 65 72 73 69 71 67
96 82 84 82 77 78 76 80 80 81 80 78 78 79 76 75 73 69 68 68 71 67
97 89 83 78 79 78 80 77 78 77 78 79 76 71 69 70 73 73 70 69 71 71
97 90 82 81 81 78 78 77 77 78 78 78 73 71 74 70 68 70 72 65 65 67
94 99 96 85 84 82 80 81 79 81 86 85 77 99 99 90 70 72 73 73 76 71
93 92 94 90 85 80 79 75 78 75 74 79 75 95 98 98 76 77 81 79 80 75
86 82 80 79 82 82 81 78 74 72 73 76 62 85 98 98 75 76 77 78 79 80
74 72 71 76 72 71 70 73 74 76 82 77 69 81 87 86 77 80 82 80 80 83
72 74 76 77 73 73 71 72 65 68 73 86 74 81 79 71 51 65 72 88 88 96
63 71 76 71 69 69 68 66 68 68 70 73 74 72 81 80 59 54 56 58 54 53

GFSNIL_sfc_rhum_096.txt.gz
RH
65 50 60 53 51 75 54 48 54 56 55 57 57 57 60 49 45 52 48 54 59 39
71 67 52 64 62 73 72 47 55 53 54 53 56 58 61 46 56 56 55 51 55 48
56 57 56 59 67 66 55 64 61 56 54 54 56 62 69 52 56 61 50 44 53 56
60 51 55 56 56 59 60 64 70 66 58 59 58 57 66 65 57 61 59 57 57 59
62 60 52 57 56 62 62 68 68 63 67 66 56 58 62 60 54 62 58 55 57 57
86 71 64 63 57 59 62 63 53 58 65 63 61 60 65 64 61 57 55 54 54 57
95 91 82 65 65 60 62 67 57 56 58 58 61 60 58 60 62 60 55 55 54 54
92 93 90 83 74 66 64 60 65 64 62 61 57 49 64 61 60 62 60 56 54 53
84 88 90 85 77 72 70 69 67 66 67 64 51 96 99 88 59 60 62 63 62 59
92 86 89 97 92 78 71 69 69 66 69 76 69 87 96 96 65 63 64 64 66 55
88 87 85 85 88 84 76 70 67 66 71 66 56 82 87 93 68 62 62 64 67 68
74 75 73 72 70 68 67 69 66 66 75 68 64 81 82 80 60 64 67 74 81 80
68 69 71 70 74 70 68 65 56 66 66 75 63 81 80 74 42 58 50 72 78 85
69 72 69 70 70 68 61 65 65 65 66 65 68 65 80 81 59 60 47 44 44 45

GFSNIL_sfc_rhum_102.txt.gz
RH
74 66 71 79 91 95 97 97 83 77 75 70 71 68 71 74 73 76 76 77 80 78
70 70 76 74 73 76 94 94 94 89 72 72 73 69 75 74 78 90 90 82 77 78
71 74 69 70 75 78 97 92 93 85 75 70 70 71 74 75 79 85 81 68 78 81
75 68 69 70 68 70 94 92 92 93 75 77 73 72 80 80 77 76 78 76 75 75
94 90 75 82 90 68 75 79 81 79 81 79 75 76 79 78 71 76 76 72 75 72
84 82 82 84 94 98 76 75 69 78 83 81 80 79 81 82 81 79 76 72 73 73
93 87 87 82 79 82 83 82 79 78 82 82 77 77 79 82 82 79 71 71 70 72
85 90 93 90 88 89 88 86 84 82 79 92 92 91 93 95 85 82 77 76 76 70
87 87 86 88 91 89 88 87 85 83 87 93 91 86 88 90 84 81 79 84 83 81
88 84 83 83 87 87 92 92 90 96 91 83 78 81 84 83 74 77 84 84 86 78
86 84 82 80 81 82 87 92 90 93 88 78 64 80 83 84 78 78 82 87 90 92
86 84 83 83 86 80 90 90 90 84 88 81 74 80 80 85 74 86 90 91 78 83
83 84 84 82 85 82 79 84 76 77 76 83 75 77 76 76 62 72 67 88 82 77
79 82 79 82 79 79 79 82 82 80 81 77 76 69 76 73 62 58 66 66 65 62

GFSNIL_sfc_rhum_105.txt.gz
RH
83 86 92 92 97 96 96 97 96 93 88 81 84 81 84 80 80 87 85 84 90 92
88 85 84 86 97 98 98 94 93 89 82 83 78 76 81 84 82 82 78 70 86 91
82 84 83 91 97 96 94 92 90 85 86 84 81 77 80 85 86 86 74 71 86 81
90 88 83 85 86 94 94 89 86 88 92 88 80 81 81 84 81 80 86 85 86 81
96 91 92 90 89 91 93 91 90 92 93 86 83 83 86 85 80 86 85 82 89 81
95 90 91 92 89 87 88 90 90 87 87 86 87 88 86 86 85 85 85 83 86 80
95 96 94 92 93 92 91 88 84 85 86 87 96 96 97 97 96 89 84 87 85 83
91 95 92 91 89 89 90 88 86 88 96 96 96 96 98 98 98 88 90 91 83 90
96 94 94 94 94 91 90 90 90 98 97 96 88 81 83 86 95 94 90 92 90 94
95 95 95 95 95 96 94 94 97 95 87 69 66 78 82 84 84 90 93 93 94 95
94 93 94 94 92 92 94 95 97 94 89 72 57 78 82 88 83 91 98 96 96 95
92 95 94 92 95 94 94 94 96 87 89 73 56 77 78 80 81 98 92 85 73 70
88 89 93 89 90 91 91 96 79 79 78 78 61 76 74 76 67 77 90 87 78 74
79 87 87 88 84 86 91 94 91 85 82 81 64 64 74 74 59 66 74 73 69 63

GFSNIL_sfc_rhum_108.txt.gz
RH
90 92 93 93 96 96 95 94 92 92 91 88 87 83 88 88 87 90 89 81 90 97
88 91 93 94 95 97 94 93 92 90 84 79 85 86 87 88 84 89 86 78 89 91
94 89 91 96 96 96 95 92 94 91 83 76 82 85 87 91 88 84 88 76 89 89
93 91 93 94 94 94 92 90 92 88 82 87 88 85 89 89 88 82 84 87 88 88
95 92 92 94 95 95 94 91 87 88 92 93 86 88 88 85 87 86 87 84 88 88
95 92 94 93 94 94 94 95 94 95 93 90 90 92 93 93 92 89 88 89 90 88
96 95 96 96 95 93 92 93 94 92 93 96 96 96 96 96 96 93 90 91 90 92
96 97 96 96 96 94 92 91 94 98 98 97 96 94 96 95 95 95 87 90 92 98
96 95 93 94 94 94 90 90 98 99 97 92 81 79 80 82 92 95 95 92 95 94
97 96 95 96 96 95 93 96 98 93 82 64 63 79 83 82 78 92 97 97 98 91
98 98 98 96 96 94 96 98 96 90 78 53 55 79 88 87 87 91 98 97 94 88
92 94 97 97 96 96 98 98 96 86 77 54 54 80 84 81 96 94 88 80 66 63
96 95 95 96 94 94 98 98 91 85 74 65 53 76 81 71 81 93 83 86 79 73
94 93 86 91 92 94 97 89 89 82 85 62 56 62 78 74 55 68 77 76 71 59

GFSNIL_sfc_rhum_111.txt.gz
RH
90 94 94 92 96 97 97 94 90 91 94 91 89 82 93 93 92 92 91 86 93 97
93 93 94 93 94 97 95 92 91 92 91 88 89 88 90 92 87 90 89 83 86 95
93 93 92 96 94 96 95 94 90 94 88 81 82 86 91 94 90 90 91 79 89 92
95 93 94 96 94 94 94 94 94 95 89 82 86 88 91 92 92 88 87 91 92 89
94 94 95 95 93 93 93 93 90 92 90 91 94 93 92 90 90 90 87 86 90 89
97 97 98 98 96 96 94 93 92 92 94 95 93 92 94 93 92 91 91 90 90 88
97 98 97 98 97 97 97 95 96 96 96 95 95 95 95 94 95 94 93 91 92 93
96 97 96 98 98 97 96 95 94 98 98 98 95 93 95 94 95 95 91 92 95 95
97 96 96 98 97 96 94 93 97 98 97 93 91 84 79 83 93 94 97 95 96 95
99 97 96 96 96 97 96 98 99 93 83 67 66 80 83 82 79 93 98 97 99 87
98 98 98 98 98 97 98 99 95 83 69 55 61 85 91 90 90 96 98 97 95 88
98 99 98 97 96 98 99 96 94 76 69 54 55 86 89 94 96 94 90 86 83 66
97 97 98 98 97 97 98 98 86 79 62 62 51 80 81 90 80 74 75 86 75 74
98 98 96 96 97 99 99 95 90 81 69 55 56 71 84 73 69 80 83 76 72 58

GFSNIL_sfc_rhum_114.txt.gz
RH
90 89 92 92 95 95 96 94 88 89 92 90 86 79 85 87 83 88 87 85 91 94
91 91 92 92 93 95 94 91 90 89 90 88 88 87 89 88 84 86 86 82 82 88
90 91 93 93 93 94 95 94 92 91 88 88 86 87 91 92 87 88 83 77 85 89
93 92 91 93 95 93 92 92 92 92 91 88 85 86 90 93 90 89 88 86 87 88
94 94 94 93 92 93 94 90 90 90 92 90 91 91 92 90 88 90 89 85 88 85
97 97 97 95 94 94 94 92 88 88 90 89 92 92 91 92 92 90 89 87 89 88
98 96 92 93 96 94 96 96 94 93 93 92 91 90 90 92 94 94 90 89 88 87
96 95 96 98 97 96 96 96 96 97 97 95 93 90 89 89 89 90 91 89 90 94
96 95 98 99 99 98 98 98 97 97 96 94 92 82 81 82 88 88 93 92 92 96
99 98 99 98 99 99 99 98 99 98 93 78 72 83 83 82 79 87 97 97 98 89
98 98 98 97 96 96 97 99 98 88 74 68 70 85 93 90 86 94 95 96 96 91
98 98 98 98 98 99 99 93 92 76 73 71 72 84 97 95 98 93 88 84 78 81
98 98 99 99 99 99 94 94 75 69 68 64 70 84 85 86 74 74 71 80 79 75
99 99 99 99 99 99 97 86 80 72 65 69 71 74 85 81 77 79 80 72 68 58

GFSNIL_sfc_rhum_117.txt.gz
RH
74 61 61 70 75 64 63 63 69 71 77 76 72 68 69 59 61 68 64 71 73 61
74 74 66 74 73 64 73 66 74 71 70 70 72 70 72 57 68 70 69 66 68 63
68 74 73 73 77 77 74 77 77 74 73 73 73 73 78 79 70 73 62 57 68 69
70 71 74 75 75 77 79 78 79 76 72 74 73 72 76 81 75 75 72 69 71 72
77 76 74 77 76 80 80 76 76 76 75 73 74 72 74 73 66 73 74 72 74 69
78 80 80 80 81 80 79 78 71 74 75 77 74 71 74 79 76 70 70 69 71 72
77 77 77 81 80 78 81 81 79 78 77 73 72 75 78 81 82 79 74 79 71 73
86 87 81 80 80 80 80 77 79 80 83 82 82 81 82 78 76 75 74 75 80 77
94 93 87 94 88 85 88 87 84 83 94 96 87 82 80 85 77 74 75 77 74 85
95 90 95 96 94 93 97 98 92 96 96 90 78 82 86 81 65 71 80 86 80 82
98 98 96 97 96 97 98 99 99 98 87 83 86 83 94 93 75 79 84 93 92 86
97 98 98 99 98 99 98 99 98 88 76 77 78 85 97 94 88 86 84 85 83 78
99 98 97 98 99 99 99 98 96 90 71 67 65 84 88 82 64 71 59 60 60 73
99 99 99 99 99 99 99 98 96 86 79 70 67 64 85 82 69 62 62 59 56 49

GFSNIL_sfc_rhum_123.txt.gz
RH
60 48 46 54 43 43 43 40 56 54 54 56 56 55 57 51 48 54 47 58 61 46
61 58 52 66 58 49 55 46 55 54 56 55 55 56 59 52 52 54 54 52 57 53
53 58 58 71 63 58 69 62 59 60 57 58 57 57 66 57 57 59 50 44 58 57
51 51 54 54 59 64 66 65 64 66 69 65 62 62 73 75 68 65 62 58 58 57
54 52 48 54 52 67 70 72 73 67 67 64 65 68 73 70 58 71 61 61 62 57
53 55 56 55 56 57 70 65 55 69 72 71 66 65 63 66 66 61 58 55 56 57
53 53 52 58 62 56 58 63 59 61 66 64 57 56 62 68 67 64 64 69 62 62
61 58 60 62 66 65 64 59 58 57 58 61 60 52 60 64 66 64 63 64 65 67
70 67 69 71 71 72 69 68 66 69 64 70 61 84 80 84 60 61 63 64 62 64
68 71 69 67 77 83 83 80 78 77 86 87 87 88 84 81 59 65 70 69 73 71
75 74 77 85 78 87 87 88 93 93 95 94 94 87 93 98 68 64 79 87 86 88
75 88 87 81 94 95 93 84 97 98 95 93 92 94 93 98 72 71 82 86 84 81
82 91 87 87 88 93 96 98 99 98 97 94 92 88 87 85 87 95 92 89 77 72
99 98 99 99 99 99 99 99 99 99 99 96 93 84 81 82 90 91 92 79 67 53

GFSNIL_sfc_rhum_129.txt.gz
RH
88 93 89 85 85 84 72 82 73 78 82 78 81 81 84 89 82 84 87 85 86 85
91 88 88 83 83 81 81 74 75 81 77 77 83 80 86 87 85 82 86 80 81 85
83 85 85 84 88 82 82 80 82 82 85 83 82 84 85 86 84 87 89 80 86 83
81 83 85 88 82 84 83 79 85 86 88 88 87 86 87 87 88 88 88 80 85 86
76 73 83 86 85 83 88 89 88 88 91 90 88 88 88 89 87 90 90 92 90 92
75 80 77 87 88 92 90 91 90 90 91 90 90 90 89 90 90 90 91 89 89 88
81 77 76 85 91 93 91 90 92 91 90 90 89 88 87 88 90 89 86 88 88 88
75 84 90 91 89 87 89 85 86 89 90 90 90 76 90 91 90 88 89 87 86 87
82 87 87 90 88 87 89 91 92 90 90 92 75 89 88 89 89 84 92 90 87 89
92 90 90 90 92 92 92 90 92 90 96 97 98 96 95 90 87 87 91 97 98 96
90 90 92 92 93 93 94 94 96 97 99 98 99 96 95 95 93 94 97 94 92 98
98 98 97 97 96 95 96 98 99 99 98 98 97 91 93 91 97 97 96 90 87 89
98 98 99 99 99 99 99 99 98 98 97 93 97 94 95 96 93 98 99 87 72 87
98 99 99 99 99 99 99 99 99 99 99 98 97 98 95 94 98 99 99 99 98 90

GFSNIL_sfc_rhum_132.txt.gz
RH
92 95 90 86 86 84 88 85 79 80 88 86 86 86 87 93 87 88 91 90 93 91
90 94 89 87 85 84 85 76 82 84 87 83 86 83 87 92 90 89 88 87 90 91
82 86 90 90 89 90 87 85 84 88 90 88 88 89 88 92 90 91 91 88 88 89
81 83 86 92 88 93 90 91 91 90 91 92 90 91 93 93 91 92 92 88 89 88
85 80 84 88 86 90 92 90 92 92 91 91 92 93 92 91 91 92 91 92 92 92
84 82 78 90 88 90 90 91 90 93 94 94 93 94 94 93 93 94 93 92 92 91
83 80 75 86 90 92 93 92 96 94 93 93 93 93 93 93 94 94 91 92 93 93
88 82 88 93 92 92 94 92 94 94 96 94 93 86 90 92 93 93 91 91 90 90
95 96 87 90 91 92 94 97 96 93 94 97 80 92 91 92 93 89 93 94 94 93
97 94 94 94 95 94 94 96 96 97 96 97 99 98 97 91 89 92 96 96 98 98
94 92 92 96 96 96 98 97 98 98 99 99 99 95 96 94 92 96 96 94 98 97
96 96 95 96 98 98 99 99 99 99 99 99 99 97 97 97 97 97 92 88 85 85
98 98 99 99 99 99 99 99 99 99 97 94 98 96 96 97 96 99 95 90 97 92
95 99 99 99 99 99 99 99 99 99 99 98 97 98 96 97 99 100 99 98 97 88

GFSNIL_sfc_rhum_135.txt.gz
RH
91 91 89 89 91 88 89 84 84 89 92 92 92 90 92 94 92 93 94 93 96 97
93 93 85 91 89 86 89 84 84 83 85 93 94 90 91 94 94 93 93 91 92 96
86 91 88 91 90 89 87 88 87 89 92 92 92 93 92 93 93 94 94 91 93 93
79 84 90 90 86 92 92 90 93 92 93 94 95 93 95 95 93 94 94 93 92 91
80 82 84 86 86 92 95 93 93 93 93 94 95 95 95 94 94 95 95 94 94 93
85 84 80 84 88 94 95 94 94 95 95 96 95 94 95 95 94 95 95 94 95 94
84 84 79 87 93 94 94 93 95 95 94 95 96 96 96 96 97 96 94 94 94 94
94 90 93 94 94 93 95 92 92 94 96 95 95 91 95 95 96 95 95 93 92 93
99 98 95 95 94 95 95 95 95 96 95 97 94 96 94 94 97 96 95 94 94 95
97 97 96 97 98 96 95 96 96 97 97 98 98 98 95 90 94 94 96 95 97 98
98 98 98 97 98 97 97 97 98 99 99 100 99 96 97 94 94 98 96 96 98 97
96 96 95 95 97 97 98 100 99 99 99 99 99 98 98 99 98 98 96 87 93 84
94 92 91 97 98 99 99 99 99 99 98 97 99 99 100 100 99 97 98 98 98 91
96 99 99 99 99 99 99 99 99 99 99 99 98 98 97 99 99 98 98 98 98 91

GFSNIL_sfc_rhum_141.txt.gz
RH
76 63 61 64 57 57 55 56 64 68 70 71 72 71 73 68 74 69 76 76 74 59
75 74 64 71 68 57 66 55 66 66 69 69 71 72 73 64 79 72 70 68 71 66
68 72 71 70 73 69 65 71 68 68 67 68 69 71 76 65 66 74 66 60 72 73
65 65 69 68 70 71 69 72 74 74 72 71 71 75 77 74 68 73 75 74 77 74
70 68 65 69 68 71 73 70 72 73 74 73 72 78 78 74 64 73 72 71 76 74
71 70 70 69 69 71 73 73 67 71 75 74 78 79 77 79 76 73 73 70 71 72
78 68 66 70 74 70 74 73 71 71 71 72 76 73 74 73 76 74 68 77 78 74
75 74 72 73 75 74 74 73 73 75 72 73 76 70 72 76 77 79 72 73 77 83
78 81 80 82 80 79 77 76 75 74 72 76 74 82 94 86 72 77 78 81 80 84
84 84 84 83 81 80 80 77 80 77 75 75 78 97 98 97 85 84 83 80 78 82
86 86 84 85 86 86 79 79 79 78 78 78 79 98 97 98 82 82 84 85 85 81
87 87 87 92 90 87 92 82 77 74 80 82 90 99 100 97 88 92 91 86 80 78
91 89 93 90 92 92 92 91 90 93 89 90 92 100 100 96 96 97 98 87 80 84
92 95 90 93 95 96 96 97 99 99 99 98 96 98 100 100 97 98 96 92 82 61

GFSNIL_sfc_rhum_144.txt.gz
RH
66 53 51 53 45 44 42 43 48 53 56 59 58 63 61 70 50 54 54 61 61 43
64 65 52 56 53 47 53 42 51 54 56 55 55 58 61 50 55 54 56 53 57 54
58 63 62 57 61 59 51 56 57 56 56 56 56 59 61 54 54 59 50 44 54 58
54 56 60 58 59 62 60 60 64 63 62 60 62 60 65 64 59 62 65 59 59 64
58 58 54 58 57 60 64 60 62 63 67 62 59 62 63 59 53 61 64 63 68 65
59 58 58 57 59 60 63 64 55 59 65 67 61 67 63 62 60 59 58 58 63 66
69 58 54 58 61 60 62 64 62 59 60 61 62 58 57 58 63 61 57 63 64 61
70 63 63 64 63 63 63 62 63 68 61 60 55 48 59 57 57 66 63 62 64 63
68 71 68 70 69 68 68 66 67 68 66 64 49 65 77 67 56 58 65 64 68 65
72 72 74 74 74 75 72 70 75 69 66 66 63 80 86 88 50 57 66 67 68 68
71 74 75 81 79 78 73 75 78 74 69 68 63 90 91 93 63 64 68 68 72 77
72 74 73 75 74 72 79 82 81 72 73 73 69 97 98 94 69 82 82 78 75 75
82 83 83 80 77 74 71 81 74 79 80 81 79 100 100 89 66 87 84 76 77 88
83 89 88 92 87 77 78 82 89 88 88 85 84 96 100 100 71 71 77 64 66 59